Temperature
19 19 18 19 19 19 19 18 18 18 18 17 17 18 18 18 17 17 17 17 17 17 17 17 17 17 18 18 18 17 17 17 17 17 17 17 17 17 17 17 17 17 17
19 19 18 19 19 19 19 18 18 18 17 17 18 18 18 18 17 17 17 17 17 17 17 17 17 17 17 17 18 17 17 17 17 17 17 17 17 17 17 17 17 17 17
19 19 18 18 19 19 18 18 18 18 18 18 18 18 18 17 17 17 17 17 17 17 17 17 17 17 17 17 17 17 17 17 17 17 17 17 17 17 17 17 17 17 16
18 18 18 18 18 18 18 18 18 18 18 18 18 18 17 17 17 17 17 17 17 17 17 17 17 17 17 17 17 17 17 17 17 17 17 17 17 17 16 16 16 16 16
18 18 18 18 18 18 18 18 18 18 18 18 18 17 17 17 17 17 17 17 17 17 17 17 17 17 17 17 17 17 17 17 17 16 16 16 16 16 16 16 16 16 16
18 18 18 18 18 18 18 18 18 18 18 18 18 17 17 17 17 17 17 17 17 17 17 17 17 17 17 17 17 17 17 17 17 16 16 16 16 16 16 16 16 16 16
18 18 18 18 18 18 18 18 18 18 18 18 17 17 17 17 17 17 17 17 17 17 17 17 17 17 17 17 17 17 17 17 17 17 16 16 16 16 16 16 16 16 16
18 18 18 18 18 18 18 17 17 17 17 17 17 17 17 17 17 17 17 17 17 17 17 17 17 17 17 17 17 17 17 17 17 17 16 16 16 16 16 16 16 16 16
18 18 18 18 17 17 17 17 17 17 17 17 17 17 17 17 17 17 17 17 17 17 17 17 17 17 17 17 17 17 17 16 16 16 16 16 16 16 16 16 16 16 15
18 18 18 18 17 17 17 17 16 16 16 16 17 17 17 17 17 17 17 17 17 17 17 17 17 17 16 16 16 16 16 16 16 16 16 16 16 16 16 16 15 15 15
18 18 18 17 17 17 17 16 16 16 16 16 16 16 16 16 16 16 16 17 17 17 17 17 17 17 16 16 16 16 16 16 16 16 16 16 16 16 15 15 15 15 15
16 17 17 17 16 16 16 16 16 16 15 15 15 15 15 15 16 16 16 16 16 16 16 16 16 16 16 16 16 16 16 16 16 15 15 15 15 15 15 15 15 15 15
15 15 15 15 16 15 15 15 15 15 15 15 15 15 15 15 15 15 15 15 15 16 16 16 16 16 16 16 16 16 16 16 15 15 15 15 15 15 15 15 15 15 15
15 15 15 15 15 15 15 15 15 15 15 15 15 15 15 15 14 14 15 15 15 15 15 16 16 16 16 16 16 16 16 15 15 15 15 15 15 15 15 15 15 14 14
14 14 14 14 14 14 14 14 14 14 14 14 14 14 14 14 14 14 14 14 14 15 15 15 15 16 16 16 16 16 15 15 15 15 14 14 14 14 14 14 14 14 14
14 14 14 14 14 14 14 14 14 14 14 14 14 14 14 14 14 14 14 14 14 14 14 15 15 15 15 15 15 15 15 15 15 14 14 14 14 14 14 14 14 14 14
13 13 13 13 13 13 13 13 13 13 13 13 13 14 14 14 14 14 14 14 14 14 14 14 14 14 14 15 15 15 15 15 15 14 14 14 14 14 14 14 14 14 14
13 13 13 13 13 13 13 13 13 13 13 13 13 14 14 14 14 14 14 14 14 14 14 14 14 14 14 14 14 14 14 14 14 14 14 14 14 14 14 14 14 14 14
13 13 13 13 13 13 13 13 13 13 13 13 13 14 14 14 14 14 14 14 14 14 14 14 13 13 14 14 14 14 14 14 14 14 14 14 14 14 14 14 14 14 14
13 13 13 13 13 13 13 13 13 13 13 14 14 14 14 14 14 14 14 14 14 14 14 13 13 13 13 14 14 14 14 14 14 14 14 13 14 14 14 14 14 14 14
12 12 12 13 13 13 13 13 13 13 13 14 14 14 14 14 14 14 14 14 14 14 13 13 13 13 13 13 13 13 13 13 13 13 13 13 13 13 13 13 13 13 13
11 12 12 12 12 12 12 13 13 13 13 13 14 14 14 14 14 14 14 14 14 14 14 14 13 13 13 13 13 13 13 13 13 13 13 13 13 13 13 13 13 13 13
11 11 11 11 12 12 12 12 12 13 13 13 13 14 14 14 14 14 14 14 14 14 14 14 13 13 13 13 13 13 13 13 13 12 12 12 12 12 12 12 12 12 12
10 11 11 11 11 11 11 12 12 12 12 13 13 13 13 14 14 14 14 14 14 14 14 13 13 13 13 13 13 13 13 13 12 12 12 12 11 11 11 11 11 11 11
10 10 10 11 11 11 11 11 11 12 12 12 12 13 13 13 13 14 14 14 14 13 13 13 13 13 13 13 13 13 13 13 12 12 12 11 11 11 11 11 10 11 11
10 10 10 10 10 10 10 11 11 11 11 11 12 12 12 13 13 13 13 13 13 13 13 13 13 13 13 13 13 13 13 12 12 12 11 11 11 11 10 10 10 10 10
Wind_Speed
4 5 5 6 7 6 5 4 3 3 2 3 4 4 4 5 5 5 4 4 4 4 4 4 4 4 3 3 2 3 4 5 5 6 6 6 6 6 6 5 4 4 3
7 5 4 5 6 8 8 6 4 3 2 3 4 5 6 7 7 6 5 5 4 4 4 4 5 4 4 3 3 3 4 5 5 6 6 6 6 6 6 5 4 4 3
11 7 5 5 7 9 8 5 4 3 2 3 3 3 4 6 6 7 6 5 5 4 4 4 5 5 4 4 3 3 4 5 5 6 6 6 6 6 6 6 5 5 5
14 9 6 6 8 8 6 4 3 3 3 3 3 2 2 3 5 6 6 6 5 4 4 4 4 4 4 4 3 3 3 4 5 5 6 6 7 6 6 6 6 6 6
15 10 6 6 7 5 4 5 4 4 4 4 4 2 2 3 3 5 5 7 7 5 4 4 3 3 3 3 3 3 3 4 4 5 5 6 6 6 6 6 6 6 5
14 11 6 6 6 5 5 5 4 4 3 4 3 2 2 3 3 4 5 6 7 7 6 4 3 3 3 3 3 3 3 3 3 4 4 4 5 5 5 5 5 4 4
11 8 6 5 5 6 6 6 4 4 3 3 3 1 1 2 3 4 3 3 5 8 7 6 5 4 4 4 4 3 3 3 3 3 2 2 2 2 2 2 2 3 3
9 8 7 5 5 5 4 5 4 3 3 4 4 3 1 3 2 2 3 4 5 5 6 8 7 7 6 5 5 4 4 3 3 3 2 2 2 2 2 1 1 1 1
9 7 7 6 6 5 5 5 5 5 4 3 2 4 4 5 3 2 2 2 3 4 4 6 8 8 8 7 7 6 6 5 5 4 4 3 3 2 2 1 1 1 1
7 8 8 8 8 7 7 7 6 4 4 4 2 1 2 3 3 1 2 2 2 3 4 4 6 9 10 10 10 9 8 8 7 6 5 4 4 3 2 2 2 2 2
5 6 7 8 8 7 8 8 8 7 5 5 4 3 2 1 2 2 2 1 1 2 3 4 5 7 10 12 12 12 11 10 9 8 7 6 5 4 3 3 3 3 2
2 3 4 6 6 6 8 8 8 8 7 6 5 4 4 3 4 4 3 2 2 2 2 3 4 6 9 11 13 13 13 12 11 10 9 7 6 5 5 4 4 4 3
1 2 3 3 4 5 6 6 7 8 8 7 7 6 5 4 3 4 4 3 2 2 2 2 3 5 7 10 12 13 13 14 13 12 11 9 8 7 6 6 5 5 5
2 2 2 3 3 4 4 4 4 5 5 6 7 6 4 4 4 4 4 4 2 1 2 3 2 3 5 7 9 11 11 14 14 14 13 11 9 9 8 8 7 7 6
3 3 3 3 3 3 4 4 3 3 4 4 4 5 4 4 4 4 3 4 5 3 3 3 2 1 2 4 6 8 11 12 13 14 14 12 10 10 10 9 9 8 7
4 4 4 4 4 4 3 3 3 3 3 3 3 4 3 3 4 4 4 3 3 4 3 3 2 1 1 2 4 7 9 10 11 12 13 13 12 12 11 11 11 10 10
4 4 4 4 4 3 3 3 3 3 3 2 2 3 3 3 4 4 4 4 4 4 4 2 1 1 1 1 1 2 4 5 7 9 10 12 12 12 13 13 13 13 13
5 4 4 4 4 3 3 2 2 2 2 2 1 2 2 3 4 4 4 4 4 4 4 3 1 1 1 1 1 0 1 2 4 5 7 8 9 10 11 13 14 14 14
8 7 7 6 5 4 4 2 2 1 2 2 2 3 4 4 4 3 4 4 3 3 3 3 1 0 1 1 1 2 2 2 0 1 2 3 4 6 7 9 10 11 12
9 9 8 7 6 5 4 3 2 1 0 2 3 4 4 5 5 5 4 4 4 4 3 2 1 0 0 1 1 2 2 2 2 3 4 4 4 5 5 4 4 6 8
10 9 9 9 8 6 6 4 3 2 1 2 2 2 3 5 6 5 4 5 5 4 3 3 2 1 1 1 1 1 2 2 3 3 2 4 5 7 8 9 7 6 5
9 10 10 9 10 9 11 9 5 3 2 2 2 2 1 2 4 6 6 7 7 5 4 3 2 2 1 1 1 2 2 2 2 3 2 3 4 5 7 10 11 10 9
9 10 10 10 10 11 14 12 9 5 4 3 3 2 1 2 4 4 6 7 5 5 6 5 4 3 3 2 3 3 2 3 2 2 2 3 4 5 7 12 15 14 13
7 7 9 9 9 12 16 13 10 6 5 5 4 3 2 2 3 6 6 6 6 5 4 5 5 4 3 3 3 4 4 5 4 3 2 3 3 3 5 11 16 17 18
7 7 7 9 9 11 16 14 11 5 5 6 6 5 4 3 4 7 7 7 6 5 7 10 9 9 9 8 7 5 4 4 3 3 4 3 2 2 4 6 13 17 20
6 6 7 8 8 9 14 15 11 4 5 5 5 6 7 5 4 6 6 7 7 5 5 6 7 9 9 10 9 5 4 4 3 2 3 2 1 2 3 4 7 13 15
Wind_Direction
192 197 204 209 213 213 211 216 224 243 262 271 264 251 241 231 225 230 253 270 262 248 230 211 200 193 189 183 184 187 185 180 178 175 173 170 165 160 156 154 152 146 135
199 197 202 208 212 211 213 214 217 230 259 270 268 248 232 220 219 224 244 264 259 249 249 237 220 208 207 206 205 210 201 191 189 189 188 186 180 178 179 182 186 186 184
205 202 203 211 213 210 208 208 213 221 248 252 252 236 215 209 209 219 235 250 254 246 246 251 250 228 220 221 218 214 210 202 197 200 199 197 195 198 201 205 209 209 207
208 203 207 219 213 197 191 188 192 207 231 226 217 214 196 204 214 222 232 242 246 245 249 257 263 245 234 231 227 218 215 206 206 209 209 207 208 213 219 220 224 222 219
209 205 211 219 208 190 187 198 184 186 203 206 199 194 210 215 216 221 228 238 241 239 242 255 255 243 239 233 226 222 213 203 208 212 213 212 213 219 227 232 234 230 226
207 205 210 213 202 197 197 192 189 187 193 188 180 161 221 231 217 219 224 231 237 237 234 238 239 238 239 230 227 221 203 198 203 207 207 207 213 222 234 241 234 229 232
198 198 207 202 198 209 213 196 179 185 182 145 122 126 291 254 231 233 223 222 228 229 226 228 228 230 235 233 227 217 203 197 194 195 192 185 184 201 217 230 232 238 239
188 195 199 198 193 201 202 188 180 172 171 162 149 139 220 307 274 237 230 223 225 217 220 223 224 226 229 228 226 226 216 207 207 207 204 191 175 185 201 224 228 236 237
184 180 181 181 181 187 194 189 189 182 180 186 174 154 164 215 255 290 263 240 220 211 222 221 223 228 228 228 228 229 222 219 224 222 216 207 194 190 186 184 208 195 167
177 176 173 173 175 181 187 190 187 187 178 189 192 179 158 156 165 250 307 301 258 224 226 222 223 227 227 227 228 229 226 225 229 231 229 223 210 205 200 208 209 179 150
178 173 173 171 176 184 188 188 188 192 194 194 183 165 149 129 139 162 228 291 320 273 239 228 224 225 227 226 228 229 227 226 228 233 235 231 223 218 215 205 193 179 173
135 154 169 168 176 186 192 195 194 194 198 199 194 183 176 177 185 177 197 219 254 290 285 252 232 229 228 225 227 229 227 225 225 231 235 235 232 230 224 212 208 213 219
86 130 150 163 177 187 192 195 195 198 197 197 199 202 198 189 169 166 175 187 221 277 303 277 247 240 234 226 228 229 228 226 225 230 234 235 234 234 236 237 236 240 243
56 78 113 139 151 160 174 179 185 188 184 190 193 185 184 188 175 171 167 158 173 256 282 272 285 249 243 231 233 228 227 227 226 230 234 235 237 238 240 245 250 257 262
53 70 86 96 108 123 132 139 148 160 160 174 183 182 184 186 183 181 170 167 167 195 245 263 266 284 255 238 237 225 227 231 231 233 235 237 240 243 246 247 250 255 258
49 64 78 88 90 95 110 120 129 129 135 145 160 171 180 181 179 178 184 184 174 171 210 245 247 259 276 256 237 222 229 234 237 237 237 238 243 247 250 251 253 254 256
46 59 67 77 84 91 103 112 122 127 124 131 144 163 193 187 178 177 175 172 172 163 197 247 269 297 311 318 2 221 227 224 235 239 239 242 247 250 253 254 254 253 253
38 47 62 69 66 66 72 90 105 108 126 160 182 183 215 197 185 177 173 174 173 173 178 210 264 320 333 354 12 59 143 203 227 240 240 247 253 258 261 260 258 256 254
37 41 48 52 48 49 50 53 89 118 159 183 197 203 204 188 192 181 178 172 168 166 163 165 196 356 4 24 54 57 67 54 61 278 262 274 278 278 277 273 267 263 261
40 40 40 39 35 38 37 26 40 56 113 220 212 205 198 191 191 182 175 167 154 144 142 149 159 127 46 26 77 81 66 49 37 36 45 37 23 17 2 336 308 287 277
40 36 37 33 26 28 25 17 7 7 335 296 266 218 209 202 192 176 167 161 150 141 139 141 138 114 87 77 91 96 98 86 56 30 41 36 39 43 36 27 22 11 352
32 34 32 28 27 24 23 29 25 14 6 343 325 320 262 201 188 174 165 159 155 150 153 147 141 143 152 147 118 98 112 106 75 17 49 42 39 50 38 35 35 40 40
30 32 27 24 21 15 24 29 33 32 27 17 354 336 329 111 128 125 130 123 122 137 149 148 144 159 158 163 138 107 94 94 93 13 57 57 32 49 39 39 44 48 49
28 27 25 21 19 16 22 26 31 33 36 33 26 18 38 76 107 127 119 106 91 80 105 113 124 130 128 129 127 123 120 103 83 37 46 78 32 42 37 41 43 51 53
32 28 22 21 19 11 16 23 28 22 32 29 28 37 51 63 93 123 124 119 105 84 84 98 99 99 99 102 111 106 101 96 76 34 25 85 54 47 46 38 37 48 53
29 21 22 19 17 11 13 20 24 23 24 20 22 25 35 47 75 117 128 133 131 125 114 95 79 73 72 71 71 80 110 109 108 75 18 75 70 74 80 39 34 39 47
Height
1548 1549 1550 1551 1552 1553 1555 1557 1558 1560 1562 1563 1564 1565 1566 1567 1567 1567 1566 1566 1565 1565 1565 1565 1566 1567 1568 1569 1570 1571 1572 1573 1574 1575 1576 1577 1578 1579 1579 1580 1581 1581 1581
1546 1547 1549 1549 1550 1552 1553 1556 1558 1559 1561 1562 1563 1564 1565 1566 1566 1566 1566 1566 1565 1565 1564 1565 1565 1566 1567 1568 1569 1570 1571 1572 1573 1574 1575 1576 1577 1578 1579 1580 1580 1580 1581
1543 1545 1546 1548 1549 1550 1552 1554 1556 1558 1559 1561 1562 1563 1564 1565 1565 1565 1566 1566 1565 1565 1565 1565 1565 1566 1566 1567 1568 1569 1570 1571 1572 1573 1574 1575 1576 1577 1578 1578 1579 1579 1580
1540 1542 1544 1545 1547 1549 1550 1552 1554 1556 1558 1559 1561 1562 1563 1563 1564 1564 1565 1565 1565 1565 1565 1565 1565 1565 1565 1566 1567 1568 1569 1570 1571 1572 1573 1574 1575 1576 1576 1577 1577 1578 1578
1536 1538 1540 1543 1545 1546 1548 1550 1552 1554 1556 1557 1559 1560 1561 1562 1562 1563 1564 1564 1565 1565 1565 1565 1565 1565 1565 1565 1566 1567 1567 1568 1569 1570 1571 1572 1573 1574 1575 1575 1576 1576 1576
1532 1534 1536 1539 1541 1543 1545 1547 1549 1551 1553 1555 1556 1557 1559 1560 1560 1561 1562 1563 1564 1564 1565 1565 1565 1564 1564 1565 1565 1566 1566 1567 1568 1569 1570 1570 1571 1572 1572 1573 1573 1574 1574
1527 1529 1532 1534 1537 1539 1541 1543 1545 1547 1550 1552 1553 1555 1556 1557 1558 1559 1560 1561 1562 1563 1563 1564 1564 1564 1564 1564 1565 1565 1566 1566 1567 1568 1568 1569 1569 1570 1570 1571 1571 1572 1572
1522 1524 1526 1529 1531 1534 1536 1538 1540 1543 1545 1548 1550 1551 1552 1554 1554 1555 1556 1558 1559 1560 1561 1562 1563 1564 1564 1564 1564 1565 1565 1565 1566 1566 1567 1567 1568 1568 1568 1569 1569 1569 1570
1516 1518 1520 1523 1525 1528 1531 1533 1535 1538 1541 1543 1546 1548 1548 1549 1550 1551 1552 1554 1555 1557 1558 1560 1561 1562 1563 1563 1564 1564 1565 1565 1565 1566 1566 1566 1566 1566 1566 1567 1567 1568 1568
1510 1513 1515 1517 1520 1522 1525 1527 1530 1533 1536 1538 1541 1543 1545 1546 1547 1547 1548 1549 1551 1553 1555 1557 1558 1559 1561 1561 1562 1563 1564 1564 1564 1565 1565 1565 1565 1565 1565 1565 1566 1566 1567
1505 1507 1510 1513 1514 1516 1519 1522 1524 1527 1530 1533 1535 1537 1539 1541 1543 1544 1545 1546 1547 1549 1551 1553 1554 1556 1558 1559 1560 1561 1562 1562 1563 1563 1563 1564 1564 1564 1564 1564 1565 1565 1565
1500 1503 1506 1508 1511 1513 1515 1517 1519 1521 1524 1526 1529 1532 1534 1536 1537 1539 1541 1542 1544 1546 1547 1549 1551 1552 1554 1556 1557 1558 1559 1560 1561 1561 1562 1562 1562 1562 1563 1563 1563 1564 1564
1498 1500 1502 1504 1507 1509 1510 1513 1514 1516 1519 1521 1523 1525 1528 1530 1533 1534 1536 1538 1540 1542 1543 1545 1547 1549 1550 1552 1554 1555 1556 1557 1558 1559 1559 1560 1560 1560 1561 1561 1561 1562 1562
1497 1499 1500 1502 1503 1505 1507 1508 1510 1512 1514 1517 1519 1521 1523 1526 1528 1530 1532 1534 1536 1538 1539 1541 1543 1545 1546 1548 1550 1551 1553 1554 1555 1556 1557 1557 1558 1558 1558 1559 1559 1559 1559
1497 1498 1498 1499 1500 1502 1504 1506 1507 1509 1511 1514 1516 1518 1520 1522 1524 1526 1529 1531 1534 1535 1536 1537 1539 1540 1542 1544 1546 1547 1549 1551 1552 1553 1554 1554 1555 1555 1556 1556 1556 1556 1556
1498 1498 1498 1498 1499 1500 1502 1504 1506 1507 1509 1511 1513 1515 1517 1519 1521 1523 1526 1528 1530 1532 1533 1534 1535 1537 1538 1540 1541 1543 1545 1546 1548 1549 1550 1551 1552 1552 1553 1553 1553 1553 1553
1499 1499 1499 1499 1499 1500 1501 1503 1504 1506 1507 1509 1512 1514 1516 1518 1520 1522 1524 1526 1527 1529 1530 1532 1532 1533 1534 1536 1537 1539 1541 1542 1544 1546 1547 1548 1549 1549 1550 1550 1550 1550 1550
1502 1501 1501 1501 1501 1501 1502 1503 1504 1505 1507 1509 1511 1512 1515 1517 1519 1520 1522 1524 1525 1526 1528 1529 1530 1530 1531 1533 1534 1536 1537 1539 1541 1542 1543 1544 1545 1546 1546 1547 1547 1547 1546
1503 1503 1502 1502 1502 1502 1502 1503 1504 1505 1507 1508 1510 1512 1514 1516 1518 1519 1521 1522 1523 1524 1525 1526 1527 1528 1529 1530 1531 1533 1535 1536 1538 1539 1540 1541 1542 1542 1543 1543 1543 1542 1542
1504 1504 1503 1503 1502 1502 1503 1503 1504 1505 1507 1508 1510 1511 1513 1515 1517 1518 1520 1521 1522 1522 1523 1524 1525 1526 1527 1528 1529 1531 1532 1533 1535 1536 1537 1538 1538 1539 1539 1539 1539 1538 1538
1506 1505 1504 1504 1503 1503 1503 1503 1504 1505 1506 1507 1509 1510 1512 1514 1516 1517 1519 1519 1520 1521 1522 1523 1524 1525 1526 1527 1528 1529 1530 1531 1533 1534 1534 1535 1535 1535 1535 1535 1535 1534 1534
1509 1507 1506 1505 1504 1503 1503 1503 1503 1504 1505 1506 1507 1509 1511 1513 1515 1516 1517 1519 1520 1521 1522 1522 1523 1524 1525 1526 1527 1528 1529 1530 1531 1532 1533 1533 1533 1533 1533 1533 1532 1532 1531
1512 1510 1509 1507 1506 1505 1504 1503 1503 1503 1504 1505 1506 1508 1510 1512 1513 1515 1517 1518 1519 1520 1522 1523 1524 1525 1525 1526 1527 1528 1528 1529 1530 1531 1532 1532 1533 1533 1533 1532 1532 1531 1530
1516 1514 1512 1510 1508 1506 1505 1504 1503 1503 1503 1504 1505 1506 1508 1510 1513 1515 1516 1518 1520 1521 1522 1523 1524 1525 1526 1526 1527 1528 1529 1529 1530 1531 1532 1533 1533 1533 1533 1533 1532 1531 1530
1518 1516 1514 1512 1510 1508 1506 1504 1503 1503 1503 1503 1504 1505 1507 1510 1512 1514 1516 1518 1520 1522 1523 1524 1525 1526 1527 1527 1528 1529 1529 1530 1531 1532 1533 1533 1534 1534 1534 1534 1533 1532 1531
1521 1519 1516 1514 1512 1509 1507 1505 1504 1503 1503 1503 1504 1505 1507 1509 1511 1513 1516 1518 1520 1522 1524 1525 1526 1527 1528 1529 1529 1530 1530 1531 1531 1532 1533 1534 1534 1534 1535 1535 1534 1533 1532